User: anonymous   Login
Location: McDonald Observatory
(30.6717°N, 104.0221°W)
Time: 19:35:37
(UTC-06:00)
Language:

Cosmos 1484 Rocket - Orbit

View from above orbital plane
View from above orbital plane
View from above satellite
View from above satellite

Ground track
Ground track

The orbit data is extracted from the following two-line orbital elements,

1 14208U 83075B   17326.56482366 +.00000725 +00000-0 +47078-4 0  9991
2 14208 097.3407 330.6423 0037907 306.1950 053.5776 15.10556830871113
Epoch (UTC): 22 November 2017 13:33:20
Eccentricity: 0.0037907
inclination: 97.3407°
perigee height: 508 km
apogee height: 561 km
right ascension of ascending node: 330.6423°
argument of perigee: 306.1950°
revolutions per day: 15.10556830
mean anomaly at epoch: 53.5776°
orbit number at epoch: 87111

The dashed part of the orbit path shows where the satellite is in the earth's shadow,  

DLR